Retour au catalogue

SL-8 R/B

ActifLEO
NORAD 3577·ROCKET BODY·🇷🇺 Russia

Lancé Nov 30, 1968 depuis Plesetsk Cosmodrome

Loading…

Prochains Passages (prochaines 24 heures)

TLE

FraisSource: Space-Track

Époque: Sep 14, 2026, 22:50 UTC

1 03577U 68106B   26257.95155905  .00000170  00000-0  47439-3 0  9992
2 03577  74.0509 212.5151 0034767 180.4948 239.6637 13.19143121781230

Suivez SL-8 R/B en temps réel avec AllMySat

Download on the App Store